Rbgn^[z[y[W
メイン
   新天体発見情報
     Comet C/2024 X4 (PANSTARRS)
投稿するにはまず登録を

スレッド表示 | 新しいものから 前のトピック | 次のトピック | 下へ
投稿者 スレッド
佐藤裕久
投稿日時: 2024-12-31 16:25
モデレータ
登録日: 2005-6-12
居住地: 日本
投稿: 2585
オンライン
Comet C/2024 X4 (PANSTARRS)

Y. Ramanjooloo (ハワイ大学天文研究所)の通報によると、12月8日UT、HaleakalaにあるPan-STARRS1の
1.8-m Ritchey-Chretien 反射望遠鏡で得た3枚の45-秒のw-バンドサーベイ画像から彗星を発見した。
1".1のシーイングで、1".8(半値全幅:FWHM)のソフトで拡散した頭部が見えるが、尾はない。
R. Weryk (西オンタリオ大学,物理および天文学科)によると、12月25.23日UT、3.6-m Canada-France-
Hawaii 望遠鏡で得た3枚の60-秒のgri-バンドフォローアップ画像では、これは明らかに彗星で、0".9
のシーイングで、1".1 (FWHM)の非常に集光した頭部が見え、p.a. 50-130°にわたって約4"の広い尾が
ある。
この天体は、2024年9月30.2日UTに21.8-22.3等、11月21.1日UTに21.0-21.5等で、小惑星センターの 
"isolated tracklet file"で発見された。

彗星機能の報告は次のとおり、

OC   Date        Reporter            Coma    Tail   PA   Comet     Date
                                                        (T/P)   Reported
F51  2024-12-08  Y. Ramanjooloo      1".8                 P   2024-12-08.80
T14  2024-12-25  R. Weryk                      4"  50     T   2024-12-25.56

発見位置は次のとおり(PCCP P223uLy)、

     2024 UT             R.A. (2000) Decl.       Mag.
     Dec.  8.22197   22 37 05.68   +29 23 51.0   21.3
           8.23272   22 37 06.13   +29 23 47.5   21.2
           8.24333   22 37 06.60   +29 23 44.1   21.1
           8.32028   22 37 10.01   +29 23 18.8   21.1
           8.32092   22 37 10.03   +29 23 18.6   20.9

MPCの楕円軌道要素、位置推算表は次のとおり、

Orbital elements:
    C/2024 X4 (PANSTARRS)                                                       
Epoch 2024 Oct. 17.0 TT = JDT 2460600.5                                         
T 2025 Sept. 1.82605 TT                                 Veres                   
q   3.6051833            (2000.0)            P               Q                  
n   0.03089334     Peri.  153.27261     +0.53435356     -0.63466104             
a  10.0591090      Node   258.94069     +0.63737271     +0.73634901             
e   0.6416001      Incl.   34.66933     +0.55517772     -0.23451117             
P  31.9                                                                         
From 32 observations 2024 Sept. 30-Dec. 25, mean residual 0".4.                 
                                                                                
Ephemeris:
Date    TT    R. A. (2000) Decl.     Delta      r    Elong.  Phase   m1
2024 11 27    22 29 39.4 +30 30 58   3.7608  4.1159   104.2    13.4  21.6
...
2024 12 12    22 40 00.8 +29 04 19   3.8861  4.0670    93.5    14.0  21.6
...
2024 12 20    22 46 49.1 +28 28 25   3.9576  4.0417    87.8    14.1  21.7
...
2024 12 26    22 52 26.2 +28 06 29   4.0124  4.0231    83.6    14.1  21.7
2024 12 27    22 53 24.8 +28 03 15   4.0216  4.0200    82.9    14.0  21.7
2024 12 28    22 54 24.1 +28 00 08   4.0307  4.0169    82.2    14.0  21.7
...
2025 01 03    23 00 33.3 +27 43 59   4.0858  3.9987    78.0    13.9  21.7
...
2025 01 11    23 09 18.9 +27 29 10   4.1584  3.9749    72.5    13.6  21.7
...
2025 01 26    23 27 12.8 +27 20 49   4.2886  3.9319    62.5    12.8  21.7

(MPEC 2024-Y146、CBET 5486)

スレッド表示 | 新しいものから 前のトピック | 次のトピック | トップ

投稿するにはまず登録を
 
© 1999 Tsutomu Seki.